Flag for Vatican City State Weather past 2 weeks in Vatican City, Vatican City State

Now
70 °F

Clear.


Feels Like: 70 °F
Forecast: 65 / 86 °F
Wind: 6 mph from East

Location: Rome / Ciampino

Current Time: Sep 2, 2015 at 4:44:29 AM

Latest Report: Sep 2, 2015 at 3:20 AM


Visibility: 10 mi

Pressure: 29.92 "Hg

Humidity: 73%

Dew point: 61 °F

Location of Vatican CityLocation

Historic Weather in Vatican City — Graph

°F

Vatican City temperature yesterday

Maximum temperature yesterday: 91 °F (at 2:20 PM)
Minimum temperature yesterday: 70 °F (at 3:20 AM)
Average temperature yesterday: 80 °F

Past Weeks' High & Low Weather Summary

 TemperatureHumidityPressure
High95 °F (Aug 31, 1:50 PM)100% (Aug 20, 1:20 AM)30.18 "Hg (Aug 20, 1:20 AM)
Low63 °F (Aug 20, 6:20 AM)21% (Aug 30, 3:20 PM)29.89 "Hg (Aug 18, 3:20 AM)
Average76 °F59%30.02 "Hg
* Reported Aug 18 3:20 AM — Sep 2 3:20 AM, Vatican City, Weather by CustomWeather, © 2015

Note: Actual official high and low records may vary slightly from our data, if they occured in-between our weather recording intervals... More about our weather records

Advertising

Vatican City weather history for previous 24 hours

 ConditionsComfort  
Time TempWeatherWind HumidityBarometerVisibility
3:20 AM
Wed, Sep 2
70 °FClear.6 mph73%29.92 "Hg10 mi
2:50 AM70 °FClear.5 mph73%29.92 "Hg10 mi
2:20 AM70 °FClear.6 mph73%29.92 "Hg10 mi
1:50 AM70 °FClear.5 mph73%29.95 "Hg10 mi
1:20 AM70 °FClear.3 mph73%29.95 "Hg10 mi
12:50 AM70 °FClear.5 mph73%29.95 "Hg10 mi
11:20 PM
Tue, Sep 1
72 °FClear.3 mph65%29.95 "Hg10 mi
10:50 PM72 °FClear.5 mph69%29.95 "Hg10 mi
10:20 PM72 °FClear.6 mph69%29.95 "Hg10 mi
9:50 PM73 °FClear.3 mph65%29.95 "Hg10 mi
9:20 PM75 °FClear.2 mph65%29.95 "Hg10 mi
8:50 PM77 °FClear.3 mph57%29.95 "Hg10 mi
8:20 PM79 °FPassing clouds.3 mph54%29.95 "HgN/A
7:50 PM81 °FPassing clouds.3 mph48%29.95 "HgN/A
7:20 PM84 °FPassing clouds.3 mph40%29.95 "HgN/A
6:50 PM84 °FPassing clouds.6 mph37%29.92 "HgN/A
6:20 PM86 °FSunny.7 mph35%29.95 "Hg10 mi
5:50 PM88 °FPassing clouds.9 mph31%29.95 "HgN/A
5:20 PM88 °FPassing clouds.7 mph31%29.95 "HgN/A
4:50 PM88 °FPassing clouds.9 mph29%29.95 "HgN/A
4:20 PM88 °FPassing clouds.10 mph27%29.95 "HgN/A
3:50 PM90 °FSunny.9 mph26%29.95 "Hg10 mi
3:20 PM90 °FSunny.10 mph24%29.95 "Hg10 mi
2:50 PM91 °FSunny.8 mph21%29.95 "Hg10 mi
2:20 PM91 °FSunny.7 mph21%29.95 "Hg10 mi
1:50 PM90 °FSunny.8 mph22%29.95 "Hg10 mi
1:20 PM90 °FSunny.7 mph26%29.95 "Hg10 mi
12:50 PM90 °FSunny.5 mph26%29.95 "Hg10 mi
12:20 PM88 °FSunny.3 mph29%29.98 "Hg10 mi
11:50 AM88 °FSunny.5 mph29%29.98 "Hg10 mi
11:20 AM86 °FSunny.7 mph33%29.98 "Hg10 mi
10:50 AM84 °FSunny.3 mph37%29.98 "Hg10 mi
10:20 AM82 °FSunny.2 mph42%29.98 "Hg10 mi
9:50 AM81 °FSunny.3 mph45%29.95 "Hg10 mi
9:20 AM79 °FSunny.2 mph51%29.95 "Hg10 mi
8:50 AM79 °FSunny.1 mph48%29.95 "Hg10 mi
8:20 AM77 °FSunny.1 mph51%29.95 "Hg10 mi
7:50 AM73 °FSunny.2 mph57%29.98 "Hg10 mi
7:20 AM70 °FClear.5 mph60%29.98 "Hg10 mi
6:50 AM70 °FClear.5 mph57%29.95 "Hg10 mi
6:20 AM70 °FClear.2 mph57%29.95 "Hg10 mi
5:50 AM70 °FClear.2 mph57%29.98 "Hg10 mi
4:50 AM70 °FClear.3 mph60%29.98 "Hg10 mi
4:20 AM70 °FClear.3 mph60%29.98 "Hg10 mi
Weather by CustomWeather, © 2015

See weather overviewHow to use our weather pages